Voltar ao catálogo

STARLINK-30341

AtivoComunicaçõesVLEO
NORAD 57714·PAYLOAD·🇺🇸 United States

Lançado Aug 27, 2023 de Cape Canaveral Space Force Station

Loading…

Próximas Passagens (próximas 24 horas)

TLE

AtualizadoSource: CelesTrak SupGP

Época: Sep 14, 2026, 21:40 UTC

1 57714C 23129S   26257.90326389 -.00003171  00000+0 -11484-3 0  2574
2 57714  43.0013 132.6465 0001582 266.9950   7.0832 15.27579935    11

Acompanhe STARLINK-30341 em tempo real com AllMySat

Download on the App Store